User: anonymous   Login
Location: Unspecified
(0.0000°N, 0.0000°E)
Time: 02:07:56
(UTC+02:00)
Language:

Cosmos 1300 - Orbit

View from above orbital plane
View from above orbital plane
View from above satellite
View from above satellite

Ground track
Ground track

The orbit data is extracted from the following two-line orbital elements,

1 12785U 81082A   17173.81477546 +.00000283 +00000-0 +12797-4 0  9996
2 12785 082.5048 067.7261 0001154 131.7878 270.5236 15.16720562952463
Epoch (UTC): 22 June 2017 19:33:16
Eccentricity: 0.0001154
inclination: 82.5048°
perigee height: 515 km
apogee height: 516 km
right ascension of ascending node: 67.7261°
argument of perigee: 131.7878°
revolutions per day: 15.16720562
mean anomaly at epoch: 270.5236°
orbit number at epoch: 95246

The dashed part of the orbit path shows where the satellite is in the earth's shadow,  

DLR